owner,sensor,date,latitude,longitude,vertical_datum,sea_water_practical_salinity,qcFlag 
LUMCON,ioos:station:LUMCON:101:1,2016-07-06T15:15:00Z,29.2533,-90.6633,1.18,4.25,1111122 
LUMCON,ioos:station:LUMCON:101:1,2016-07-06T15:30:00Z,29.2533,-90.6633,1.18,4.24,1111122 
LUMCON,ioos:station:LUMCON:101:1,2016-07-06T15:45:00Z,29.2533,-90.6633,1.18,4.24,1111122 
LUMCON,ioos:station:LUMCON:101:1,2016-07-06T16:00:00Z,29.2533,-90.6633,1.19,4.25,1111122 
LUMCON,ioos:station:LUMCON:101:1,2016-07-06T16:15:00Z,29.2533,-90.6633,1.18,4.26,1111122 
LUMCON,ioos:station:LUMCON:101:1,2016-07-06T16:30:00Z,29.2533,-90.6633,1.18,4.26,1111122 
LUMCON,ioos:station:LUMCON:101:1,2016-07-06T16:45:00Z,29.2533,-90.6633,1.19,4.26,1111122 
LUMCON,ioos:station:LUMCON:101:1,2016-07-06T17:00:00Z,29.2533,-90.6633,1.19,4.26,1111122 
LUMCON,ioos:station:LUMCON:101:1,2016-07-06T17:15:00Z,29.2533,-90.6633,1.2,4.25,1111122 
LUMCON,ioos:station:LUMCON:101:1,2016-07-06T17:30:00Z,29.2533,-90.6633,1.21,4.25,1111122 
LUMCON,ioos:station:LUMCON:101:1,2016-07-06T17:45:00Z,29.2533,-90.6633,1.2,4.25,1111122 
LUMCON,ioos:station:LUMCON:101:1,2016-07-06T18:00:00Z,29.2533,-90.6633,1.2,4.26,1111122 
LUMCON,ioos:station:LUMCON:101:1,2016-07-06T18:15:00Z,29.2533,-90.6633,1.19,4.26,1111122 
LUMCON,ioos:station:LUMCON:101:1,2016-07-06T18:30:00Z,29.2533,-90.6633,1.18,4.26,1111122 
LUMCON,ioos:station:LUMCON:101:1,2016-07-06T18:45:00Z,29.2533,-90.6633,1.17,4.26,1111122 
LUMCON,ioos:station:LUMCON:101:1,2016-07-06T19:00:00Z,29.2533,-90.6633,1.17,4.26,1111122 
LUMCON,ioos:station:LUMCON:101:1,2016-07-06T19:15:00Z,29.2533,-90.6633,1.16,4.26,1111122 
LUMCON,ioos:station:LUMCON:101:1,2016-07-06T19:30:00Z,29.2533,-90.6633,1.16,4.25,1111122 
LUMCON,ioos:station:LUMCON:101:1,2016-07-06T19:45:00Z,29.2533,-90.6633,1.15,4.25,1111122 
LUMCON,ioos:station:LUMCON:101:1,2016-07-06T20:00:00Z,29.2533,-90.6633,1.15,4.25,1111122 
LUMCON,ioos:station:LUMCON:101:1,2016-07-06T20:15:00Z,29.2533,-90.6633,1.14,4.25,1111122 
LUMCON,ioos:station:LUMCON:101:1,2016-07-06T20:30:00Z,29.2533,-90.6633,1.13,4.24,1111122 
LUMCON,ioos:station:LUMCON:101:1,2016-07-06T20:45:00Z,29.2533,-90.6633,1.13,4.23,1111122 
LUMCON,ioos:station:LUMCON:101:1,2016-07-06T21:00:00Z,29.2533,-90.6633,1.11,4.21,1111122 
LUMCON,ioos:station:LUMCON:101:1,2016-07-06T21:15:00Z,29.2533,-90.6633,1.1,4.2,1111122 
LUMCON,ioos:station:LUMCON:101:1,2016-07-06T21:30:00Z,29.2533,-90.6633,1.09,4.2,1111122 
LUMCON,ioos:station:LUMCON:101:1,2016-07-06T21:45:00Z,29.2533,-90.6633,1.08,4.18,1111122 
LUMCON,ioos:station:LUMCON:101:1,2016-07-06T22:00:00Z,29.2533,-90.6633,1.06,4.15,1111122 
LUMCON,ioos:station:LUMCON:101:1,2016-07-06T22:15:00Z,29.2533,-90.6633,1.06,4.13,1111122 
LUMCON,ioos:station:LUMCON:101:1,2016-07-06T22:30:00Z,29.2533,-90.6633,1.05,4.12,1111122 
LUMCON,ioos:station:LUMCON:101:1,2016-07-06T22:45:00Z,29.2533,-90.6633,1.04,4.09,1111122 
LUMCON,ioos:station:LUMCON:101:1,2016-07-06T23:00:00Z,29.2533,-90.6633,1.03,4.08,1111122 
LUMCON,ioos:station:LUMCON:101:1,2016-07-06T23:15:00Z,29.2533,-90.6633,1.01,4.06,1111122 
LUMCON,ioos:station:LUMCON:101:1,2016-07-06T23:30:00Z,29.2533,-90.6633,1.01,4.06,1111122 
LUMCON,ioos:station:LUMCON:101:1,2016-07-06T23:45:00Z,29.2533,-90.6633,1.0,4.05,1111122 
LUMCON,ioos:station:LUMCON:101:1,2016-07-07T00:00:00Z,29.2533,-90.6633,0.99,4.05,1111122 
LUMCON,ioos:station:LUMCON:101:1,2016-07-07T00:15:00Z,29.2533,-90.6633,0.97,4.03,1111122 
LUMCON,ioos:station:LUMCON:101:1,2016-07-07T00:30:00Z,29.2533,-90.6633,0.96,4.02,1111122 
LUMCON,ioos:station:LUMCON:101:1,2016-07-07T00:45:00Z,29.2533,-90.6633,0.94,4.02,1111122 
LUMCON,ioos:station:LUMCON:101:1,2016-07-07T01:00:00Z,29.2533,-90.6633,0.93,4.02,1111122 
LUMCON,ioos:station:LUMCON:101:1,2016-07-07T01:15:00Z,29.2533,-90.6633,0.93,4.0,1111122 
LUMCON,ioos:station:LUMCON:101:1,2016-07-07T01:30:00Z,29.2533,-90.6633,0.92,3.99,1111122 
LUMCON,ioos:station:LUMCON:101:1,2016-07-07T01:45:00Z,29.2533,-90.6633,0.91,3.98,1111122 
LUMCON,ioos:station:LUMCON:101:1,2016-07-07T02:00:00Z,29.2533,-90.6633,0.9,3.97,1111122 
LUMCON,ioos:station:LUMCON:101:1,2016-07-07T02:15:00Z,29.2533,-90.6633,0.89,3.97,1111122 
LUMCON,ioos:station:LUMCON:101:1,2016-07-07T02:30:00Z,29.2533,-90.6633,0.88,3.96,1111122 
LUMCON,ioos:station:LUMCON:101:1,2016-07-07T02:45:00Z,29.2533,-90.6633,0.87,3.96,1111122 
LUMCON,ioos:station:LUMCON:101:1,2016-07-07T03:00:00Z,29.2533,-90.6633,0.87,3.95,1111122 
LUMCON,ioos:station:LUMCON:101:1,2016-07-07T03:15:00Z,29.2533,-90.6633,0.86,3.94,1111122 
LUMCON,ioos:station:LUMCON:101:1,2016-07-07T03:30:00Z,29.2533,-90.6633,0.85,3.94,1111122 
LUMCON,ioos:station:LUMCON:101:1,2016-07-07T03:45:00Z,29.2533,-90.6633,0.84,3.93,1111122 
LUMCON,ioos:station:LUMCON:101:1,2016-07-07T04:00:00Z,29.2533,-90.6633,0.84,3.93,1111122 
LUMCON,ioos:station:LUMCON:101:1,2016-07-07T04:15:00Z,29.2533,-90.6633,0.83,3.93,1111122 
LUMCON,ioos:station:LUMCON:101:1,2016-07-07T04:30:00Z,29.2533,-90.6633,0.82,3.93,1111122 
LUMCON,ioos:station:LUMCON:101:1,2016-07-07T04:45:00Z,29.2533,-90.6633,0.82,3.92,1111122 
LUMCON,ioos:station:LUMCON:101:1,2016-07-07T05:00:00Z,29.2533,-90.6633,0.82,3.92,1111122 
LUMCON,ioos:station:LUMCON:101:1,2016-07-07T05:15:00Z,29.2533,-90.6633,0.82,3.92,1111122 
LUMCON,ioos:station:LUMCON:101:1,2016-07-07T05:30:00Z,29.2533,-90.6633,0.83,3.91,1111122 
LUMCON,ioos:station:LUMCON:101:1,2016-07-07T05:45:00Z,29.2533,-90.6633,0.83,3.91,1111122 
LUMCON,ioos:station:LUMCON:101:1,2016-07-07T06:00:00Z,29.2533,-90.6633,0.83,3.89,1111122 
LUMCON,ioos:station:LUMCON:101:1,2016-07-07T06:15:00Z,29.2533,-90.6633,0.84,3.88,1111122 
LUMCON,ioos:station:LUMCON:101:1,2016-07-07T06:30:00Z,29.2533,-90.6633,0.85,3.9,1111122 
LUMCON,ioos:station:LUMCON:101:1,2016-07-07T06:45:00Z,29.2533,-90.6633,0.86,3.91,1111122 
LUMCON,ioos:station:LUMCON:101:1,2016-07-07T07:00:00Z,29.2533,-90.6633,0.87,3.97,1111122 
LUMCON,ioos:station:LUMCON:101:1,2016-07-07T07:15:00Z,29.2533,-90.6633,0.88,3.96,1111122 
LUMCON,ioos:station:LUMCON:101:1,2016-07-07T07:30:00Z,29.2533,-90.6633,0.89,3.95,1111122 
LUMCON,ioos:station:LUMCON:101:1,2016-07-07T07:45:00Z,29.2533,-90.6633,0.9,3.71,1111122 
LUMCON,ioos:station:LUMCON:101:1,2016-07-07T08:00:00Z,29.2533,-90.6633,0.91,3.48,1111122 
LUMCON,ioos:station:LUMCON:101:1,2016-07-07T08:15:00Z,29.2533,-90.6633,0.92,3.42,1111122 
LUMCON,ioos:station:LUMCON:101:1,2016-07-07T08:30:00Z,29.2533,-90.6633,0.93,3.37,1111122 
LUMCON,ioos:station:LUMCON:101:1,2016-07-07T08:45:00Z,29.2533,-90.6633,0.94,3.4,1111122 
LUMCON,ioos:station:LUMCON:101:1,2016-07-07T09:00:00Z,29.2533,-90.6633,0.96,3.47,1111122 
LUMCON,ioos:station:LUMCON:101:1,2016-07-07T09:15:00Z,29.2533,-90.6633,0.98,3.54,1111122 
LUMCON,ioos:station:LUMCON:101:1,2016-07-07T09:30:00Z,29.2533,-90.6633,0.99,3.67,1111122 
LUMCON,ioos:station:LUMCON:101:1,2016-07-07T09:45:00Z,29.2533,-90.6633,1.0,3.82,1111122 
LUMCON,ioos:station:LUMCON:101:1,2016-07-07T10:00:00Z,29.2533,-90.6633,1.02,3.91,1111122 
LUMCON,ioos:station:LUMCON:101:1,2016-07-07T10:15:00Z,29.2533,-90.6633,1.03,3.95,1111122 
LUMCON,ioos:station:LUMCON:101:1,2016-07-07T10:30:00Z,29.2533,-90.6633,1.05,3.94,1111122 
LUMCON,ioos:station:LUMCON:101:1,2016-07-07T10:45:00Z,29.2533,-90.6633,1.06,3.96,1111122 
LUMCON,ioos:station:LUMCON:101:1,2016-07-07T11:00:00Z,29.2533,-90.6633,1.06,3.94,1111122 
LUMCON,ioos:station:LUMCON:101:1,2016-07-07T11:15:00Z,29.2533,-90.6633,1.07,3.95,1111122 
LUMCON,ioos:station:LUMCON:101:1,2016-07-07T11:30:00Z,29.2533,-90.6633,1.08,3.94,1111122 
LUMCON,ioos:station:LUMCON:101:1,2016-07-07T11:45:00Z,29.2533,-90.6633,1.09,3.94,1111122 
LUMCON,ioos:station:LUMCON:101:1,2016-07-07T12:00:00Z,29.2533,-90.6633,1.1,3.94,1111122 
LUMCON,ioos:station:LUMCON:101:1,2016-07-07T12:15:00Z,29.2533,-90.6633,1.11,3.95,1111122 
LUMCON,ioos:station:LUMCON:101:1,2016-07-07T12:30:00Z,29.2533,-90.6633,1.12,3.98,1111122 
LUMCON,ioos:station:LUMCON:101:1,2016-07-07T12:45:00Z,29.2533,-90.6633,1.13,3.99,1111122 
LUMCON,ioos:station:LUMCON:101:1,2016-07-07T13:00:00Z,29.2533,-90.6633,1.13,3.99,1111122 
LUMCON,ioos:station:LUMCON:101:1,2016-07-07T13:15:00Z,29.2533,-90.6633,1.15,4.01,1111122 
LUMCON,ioos:station:LUMCON:101:1,2016-07-07T13:30:00Z,29.2533,-90.6633,1.15,4.01,1111122 
LUMCON,ioos:station:LUMCON:101:1,2016-07-07T13:45:00Z,29.2533,-90.6633,1.15,4.03,1111122 
LUMCON,ioos:station:LUMCON:101:1,2016-07-07T14:00:00Z,29.2533,-90.6633,1.15,4.03,1111122 
LUMCON,ioos:station:LUMCON:101:1,2016-07-07T14:15:00Z,29.2533,-90.6633,1.16,4.03,1111122 
LUMCON,ioos:station:LUMCON:101:1,2016-07-07T14:30:00Z,29.2533,-90.6633,1.16,4.03,1111122 
LUMCON,ioos:station:LUMCON:101:1,2016-07-07T14:45:00Z,29.2533,-90.6633,1.17,4.02,1111122 
LUMCON,ioos:station:LUMCON:101:1,2016-07-07T15:00:00Z,29.2533,-90.6633,1.18,4.02,1111122 
LUMCON,ioos:station:LUMCON:101:1,2016-07-07T15:15:00Z,29.2533,-90.6633,1.18,4.0,1111122 
LUMCON,ioos:station:LUMCON:101:1,2016-07-07T15:30:00Z,29.2533,-90.6633,1.18,4.0,1111122 
LUMCON,ioos:station:LUMCON:101:1,2016-07-07T15:45:00Z,29.2533,-90.6633,1.19,3.98,1111122 
LUMCON,ioos:station:LUMCON:101:1,2016-07-07T16:00:00Z,29.2533,-90.6633,1.19,3.99,1111122 
LUMCON,ioos:station:LUMCON:101:1,2016-07-07T16:15:00Z,29.2533,-90.6633,1.2,3.94,1111122 
LUMCON,ioos:station:LUMCON:101:1,2016-07-07T16:30:00Z,29.2533,-90.6633,1.2,3.95,1111122 
LUMCON,ioos:station:LUMCON:101:1,2016-07-07T16:45:00Z,29.2533,-90.6633,1.2,3.92,1111122 
LUMCON,ioos:station:LUMCON:101:1,2016-07-07T17:00:00Z,29.2533,-90.6633,1.21,3.93,1111122 
LUMCON,ioos:station:LUMCON:101:1,2016-07-07T17:15:00Z,29.2533,-90.6633,1.21,3.92,1111122 
LUMCON,ioos:station:LUMCON:101:1,2016-07-07T17:30:00Z,29.2533,-90.6633,1.21,3.9,1111122 
LUMCON,ioos:station:LUMCON:101:1,2016-07-07T17:45:00Z,29.2533,-90.6633,1.21,3.91,1111122 
LUMCON,ioos:station:LUMCON:101:1,2016-07-07T18:00:00Z,29.2533,-90.6633,1.21,3.89,1111122 
LUMCON,ioos:station:LUMCON:101:1,2016-07-07T18:15:00Z,29.2533,-90.6633,1.2,3.89,1111122 
LUMCON,ioos:station:LUMCON:101:1,2016-07-07T18:30:00Z,29.2533,-90.6633,1.2,3.9,1111122 
LUMCON,ioos:station:LUMCON:101:1,2016-07-07T18:45:00Z,29.2533,-90.6633,1.2,3.89,1111122 
LUMCON,ioos:station:LUMCON:101:1,2016-07-07T19:00:00Z,29.2533,-90.6633,1.2,3.89,1111122 
LUMCON,ioos:station:LUMCON:101:1,2016-07-07T19:15:00Z,29.2533,-90.6633,1.2,3.89,1111122 
LUMCON,ioos:station:LUMCON:101:1,2016-07-07T19:30:00Z,29.2533,-90.6633,1.2,3.89,1111122 
LUMCON,ioos:station:LUMCON:101:1,2016-07-07T19:45:00Z,29.2533,-90.6633,1.2,3.9,1111122 
LUMCON,ioos:station:LUMCON:101:1,2016-07-07T20:00:00Z,29.2533,-90.6633,1.19,3.9,1111122 
LUMCON,ioos:station:LUMCON:101:1,2016-07-07T20:15:00Z,29.2533,-90.6633,1.18,3.91,1111122 
LUMCON,ioos:station:LUMCON:101:1,2016-07-07T20:30:00Z,29.2533,-90.6633,1.18,3.9,1111122 
LUMCON,ioos:station:LUMCON:101:1,2016-07-07T20:45:00Z,29.2533,-90.6633,1.16,3.92,1111122 
LUMCON,ioos:station:LUMCON:101:1,2016-07-07T21:00:00Z,29.2533,-90.6633,1.15,3.93,1111122 
LUMCON,ioos:station:LUMCON:101:1,2016-07-07T21:15:00Z,29.2533,-90.6633,1.14,3.92,1111122 
LUMCON,ioos:station:LUMCON:101:1,2016-07-07T21:30:00Z,29.2533,-90.6633,1.13,3.92,1111122 
LUMCON,ioos:station:LUMCON:101:1,2016-07-07T21:45:00Z,29.2533,-90.6633,1.12,3.92,1111122 
LUMCON,ioos:station:LUMCON:101:1,2016-07-07T22:00:00Z,29.2533,-90.6633,1.12,3.92,1111122 
LUMCON,ioos:station:LUMCON:101:1,2016-07-07T22:15:00Z,29.2533,-90.6633,1.11,3.94,1111122 
LUMCON,ioos:station:LUMCON:101:1,2016-07-07T22:30:00Z,29.2533,-90.6633,1.1,3.96,1111122 
LUMCON,ioos:station:LUMCON:101:1,2016-07-07T22:45:00Z,29.2533,-90.6633,1.08,3.98,1111122 
LUMCON,ioos:station:LUMCON:101:1,2016-07-07T23:00:00Z,29.2533,-90.6633,1.08,3.98,1111122 
LUMCON,ioos:station:LUMCON:101:1,2016-07-07T23:15:00Z,29.2533,-90.6633,1.06,3.99,1111122 
LUMCON,ioos:station:LUMCON:101:1,2016-07-07T23:30:00Z,29.2533,-90.6633,1.05,3.99,1111122 
LUMCON,ioos:station:LUMCON:101:1,2016-07-07T23:45:00Z,29.2533,-90.6633,1.04,3.99,1111122 
LUMCON,ioos:station:LUMCON:101:1,2016-07-08T00:00:00Z,29.2533,-90.6633,1.03,3.96,1111122 
LUMCON,ioos:station:LUMCON:101:1,2016-07-08T00:15:00Z,29.2533,-90.6633,1.02,3.97,1111122 
LUMCON,ioos:station:LUMCON:101:1,2016-07-08T00:30:00Z,29.2533,-90.6633,1.01,3.94,1111122 
LUMCON,ioos:station:LUMCON:101:1,2016-07-08T00:45:00Z,29.2533,-90.6633,1.0,3.91,1111122 
LUMCON,ioos:station:LUMCON:101:1,2016-07-08T01:00:00Z,29.2533,-90.6633,0.99,3.94,1111122 
LUMCON,ioos:station:LUMCON:101:1,2016-07-08T01:15:00Z,29.2533,-90.6633,0.98,3.94,1111122 
LUMCON,ioos:station:LUMCON:101:1,2016-07-08T01:30:00Z,29.2533,-90.6633,0.97,3.94,1111122 
LUMCON,ioos:station:LUMCON:101:1,2016-07-08T01:45:00Z,29.2533,-90.6633,0.97,3.96,1111122 
LUMCON,ioos:station:LUMCON:101:1,2016-07-08T02:00:00Z,29.2533,-90.6633,0.96,3.94,1111122 
LUMCON,ioos:station:LUMCON:101:1,2016-07-08T02:15:00Z,29.2533,-90.6633,0.94,3.94,1111122 
LUMCON,ioos:station:LUMCON:101:1,2016-07-08T02:30:00Z,29.2533,-90.6633,0.93,3.93,1111122 
LUMCON,ioos:station:LUMCON:101:1,2016-07-08T02:45:00Z,29.2533,-90.6633,0.92,3.92,1111122 
LUMCON,ioos:station:LUMCON:101:1,2016-07-08T03:00:00Z,29.2533,-90.6633,0.92,3.93,1111122 
LUMCON,ioos:station:LUMCON:101:1,2016-07-08T03:15:00Z,29.2533,-90.6633,0.91,3.91,1111122 
LUMCON,ioos:station:LUMCON:101:1,2016-07-08T03:30:00Z,29.2533,-90.6633,0.9,3.93,1111122 
LUMCON,ioos:station:LUMCON:101:1,2016-07-08T03:45:00Z,29.2533,-90.6633,0.9,3.9,1111122 
LUMCON,ioos:station:LUMCON:101:1,2016-07-08T04:00:00Z,29.2533,-90.6633,0.89,3.89,1111122 
LUMCON,ioos:station:LUMCON:101:1,2016-07-08T04:15:00Z,29.2533,-90.6633,0.88,3.91,1111122 
LUMCON,ioos:station:LUMCON:101:1,2016-07-08T04:30:00Z,29.2533,-90.6633,0.88,3.89,1111122 
LUMCON,ioos:station:LUMCON:101:1,2016-07-08T04:45:00Z,29.2533,-90.6633,0.88,3.89,1111122 
LUMCON,ioos:station:LUMCON:101:1,2016-07-08T05:00:00Z,29.2533,-90.6633,0.89,3.9,1111122 
LUMCON,ioos:station:LUMCON:101:1,2016-07-08T05:15:00Z,29.2533,-90.6633,0.89,3.89,1111122 
LUMCON,ioos:station:LUMCON:101:1,2016-07-08T05:30:00Z,29.2533,-90.6633,0.89,3.89,1111122 
LUMCON,ioos:station:LUMCON:101:1,2016-07-08T05:45:00Z,29.2533,-90.6633,0.88,3.89,1111122 
LUMCON,ioos:station:LUMCON:101:1,2016-07-08T06:00:00Z,29.2533,-90.6633,0.88,3.87,1111122 
LUMCON,ioos:station:LUMCON:101:1,2016-07-08T06:15:00Z,29.2533,-90.6633,0.87,3.86,1111122 
LUMCON,ioos:station:LUMCON:101:1,2016-07-08T06:30:00Z,29.2533,-90.6633,0.88,3.88,1111122 
LUMCON,ioos:station:LUMCON:101:1,2016-07-08T06:45:00Z,29.2533,-90.6633,0.88,3.86,1111122 
LUMCON,ioos:station:LUMCON:101:1,2016-07-08T07:00:00Z,29.2533,-90.6633,0.89,3.87,1111122 
LUMCON,ioos:station:LUMCON:101:1,2016-07-08T07:15:00Z,29.2533,-90.6633,0.89,3.87,1111122 
LUMCON,ioos:station:LUMCON:101:1,2016-07-08T07:30:00Z,29.2533,-90.6633,0.9,3.86,1111122 
LUMCON,ioos:station:LUMCON:101:1,2016-07-08T07:45:00Z,29.2533,-90.6633,0.91,3.89,1111122 
LUMCON,ioos:station:LUMCON:101:1,2016-07-08T08:00:00Z,29.2533,-90.6633,0.92,3.87,1111122 
LUMCON,ioos:station:LUMCON:101:1,2016-07-08T08:15:00Z,29.2533,-90.6633,0.93,3.88,1111122 
LUMCON,ioos:station:LUMCON:101:1,2016-07-08T08:30:00Z,29.2533,-90.6633,0.94,3.86,1111122 
LUMCON,ioos:station:LUMCON:101:1,2016-07-08T08:45:00Z,29.2533,-90.6633,0.95,3.68,1111122 
LUMCON,ioos:station:LUMCON:101:1,2016-07-08T09:00:00Z,29.2533,-90.6633,0.95,3.6,1111122 
LUMCON,ioos:station:LUMCON:101:1,2016-07-08T09:15:00Z,29.2533,-90.6633,0.96,3.58,1111122 
LUMCON,ioos:station:LUMCON:101:1,2016-07-08T09:30:00Z,29.2533,-90.6633,0.97,3.57,1111122 
LUMCON,ioos:station:LUMCON:101:1,2016-07-08T09:45:00Z,29.2533,-90.6633,0.98,3.58,1111122 
LUMCON,ioos:station:LUMCON:101:1,2016-07-08T10:00:00Z,29.2533,-90.6633,0.99,3.62,1111122 
LUMCON,ioos:station:LUMCON:101:1,2016-07-08T10:15:00Z,29.2533,-90.6633,1.01,3.68,1111122 
LUMCON,ioos:station:LUMCON:101:1,2016-07-08T10:30:00Z,29.2533,-90.6633,1.02,3.82,1111122 
LUMCON,ioos:station:LUMCON:101:1,2016-07-08T10:45:00Z,29.2533,-90.6633,1.03,3.91,1111122 
LUMCON,ioos:station:LUMCON:101:1,2016-07-08T11:00:00Z,29.2533,-90.6633,1.04,4.03,1111122 
LUMCON,ioos:station:LUMCON:101:1,2016-07-08T11:15:00Z,29.2533,-90.6633,1.05,4.03,1111122 
LUMCON,ioos:station:LUMCON:101:1,2016-07-08T11:30:00Z,29.2533,-90.6633,1.06,4.03,1111122 
LUMCON,ioos:station:LUMCON:101:1,2016-07-08T11:45:00Z,29.2533,-90.6633,1.06,4.07,1111122 
LUMCON,ioos:station:LUMCON:101:1,2016-07-08T12:00:00Z,29.2533,-90.6633,1.07,4.08,1111122 
LUMCON,ioos:station:LUMCON:101:1,2016-07-08T12:15:00Z,29.2533,-90.6633,1.08,4.09,1111122 
LUMCON,ioos:station:LUMCON:101:1,2016-07-08T12:30:00Z,29.2533,-90.6633,1.09,4.09,1111122 
LUMCON,ioos:station:LUMCON:101:1,2016-07-08T12:45:00Z,29.2533,-90.6633,1.1,4.1,1111122 
LUMCON,ioos:station:LUMCON:101:1,2016-07-08T13:00:00Z,29.2533,-90.6633,1.1,4.1,1111122 
LUMCON,ioos:station:LUMCON:101:1,2016-07-08T13:15:00Z,29.2533,-90.6633,1.1,4.09,1111122 
LUMCON,ioos:station:LUMCON:101:1,2016-07-08T13:30:00Z,29.2533,-90.6633,1.11,4.08,1111122 
LUMCON,ioos:station:LUMCON:101:1,2016-07-08T13:45:00Z,29.2533,-90.6633,1.12,4.05,1111122 
LUMCON,ioos:station:LUMCON:101:1,2016-07-08T14:00:00Z,29.2533,-90.6633,1.12,4.03,1111122 
LUMCON,ioos:station:LUMCON:101:1,2016-07-08T14:15:00Z,29.2533,-90.6633,1.12,3.98,1111122 
LUMCON,ioos:station:LUMCON:101:1,2016-07-08T14:30:00Z,29.2533,-90.6633,1.13,4.02,1111122 
LUMCON,ioos:station:LUMCON:101:1,2016-07-08T14:45:00Z,29.2533,-90.6633,1.12,4.03,1111122 
LUMCON,ioos:station:LUMCON:101:1,2016-07-08T15:00:00Z,29.2533,-90.6633,1.12,3.99,1111122 
LUMCON,ioos:station:LUMCON:101:1,2016-07-08T15:15:00Z,29.2533,-90.6633,1.12,3.96,1111122 
LUMCON,ioos:station:LUMCON:101:1,2016-07-08T15:30:00Z,29.2533,-90.6633,1.12,3.97,1111122 
LUMCON,ioos:station:LUMCON:101:1,2016-07-08T15:45:00Z,29.2533,-90.6633,1.12,3.97,1111122 
LUMCON,ioos:station:LUMCON:101:1,2016-07-08T16:00:00Z,29.2533,-90.6633,1.12,3.96,1111122 
LUMCON,ioos:station:LUMCON:101:1,2016-07-08T16:15:00Z,29.2533,-90.6633,1.12,3.97,1111122 
LUMCON,ioos:station:LUMCON:101:1,2016-07-08T16:30:00Z,29.2533,-90.6633,1.12,4.0,1111122 
LUMCON,ioos:station:LUMCON:101:1,2016-07-08T16:45:00Z,29.2533,-90.6633,1.12,4.0,1111122 
LUMCON,ioos:station:LUMCON:101:1,2016-07-08T17:00:00Z,29.2533,-90.6633,1.13,4.01,1111122 
LUMCON,ioos:station:LUMCON:101:1,2016-07-08T17:15:00Z,29.2533,-90.6633,1.13,4.01,1111122 
LUMCON,ioos:station:LUMCON:101:1,2016-07-08T17:30:00Z,29.2533,-90.6633,1.12,3.97,1111122 
LUMCON,ioos:station:LUMCON:101:1,2016-07-08T17:45:00Z,29.2533,-90.6633,1.13,3.97,1111122 
LUMCON,ioos:station:LUMCON:101:1,2016-07-08T18:00:00Z,29.2533,-90.6633,1.13,3.97,1111122 
LUMCON,ioos:station:LUMCON:101:1,2016-07-08T18:15:00Z,29.2533,-90.6633,1.13,3.99,1111122 
LUMCON,ioos:station:LUMCON:101:1,2016-07-08T18:30:00Z,29.2533,-90.6633,1.12,3.97,1111122 
LUMCON,ioos:station:LUMCON:101:1,2016-07-08T18:45:00Z,29.2533,-90.6633,1.12,3.97,1111122 
LUMCON,ioos:station:LUMCON:101:1,2016-07-08T19:00:00Z,29.2533,-90.6633,1.12,3.97,1111122 
LUMCON,ioos:station:LUMCON:101:1,2016-07-08T19:15:00Z,29.2533,-90.6633,1.11,3.97,1111122 
LUMCON,ioos:station:LUMCON:101:1,2016-07-08T19:30:00Z,29.2533,-90.6633,1.11,3.98,1111122 
LUMCON,ioos:station:LUMCON:101:1,2016-07-08T19:45:00Z,29.2533,-90.6633,1.11,4.0,1111122 
LUMCON,ioos:station:LUMCON:101:1,2016-07-08T20:00:00Z,29.2533,-90.6633,1.11,4.02,1111122 
LUMCON,ioos:station:LUMCON:101:1,2016-07-08T20:15:00Z,29.2533,-90.6633,1.11,4.02,1111122 
LUMCON,ioos:station:LUMCON:101:1,2016-07-08T20:30:00Z,29.2533,-90.6633,1.11,4.02,1111122 
LUMCON,ioos:station:LUMCON:101:1,2016-07-08T20:45:00Z,29.2533,-90.6633,1.11,4.02,1111122 
LUMCON,ioos:station:LUMCON:101:1,2016-07-08T21:00:00Z,29.2533,-90.6633,1.11,4.05,1111122 
LUMCON,ioos:station:LUMCON:101:1,2016-07-08T21:15:00Z,29.2533,-90.6633,1.1,4.03,1111122 
LUMCON,ioos:station:LUMCON:101:1,2016-07-08T21:30:00Z,29.2533,-90.6633,1.09,4.03,1111122 
LUMCON,ioos:station:LUMCON:101:1,2016-07-08T21:45:00Z,29.2533,-90.6633,1.08,4.04,1111122 
LUMCON,ioos:station:LUMCON:101:1,2016-07-08T22:00:00Z,29.2533,-90.6633,1.09,4.04,1111122 
LUMCON,ioos:station:LUMCON:101:1,2016-07-08T22:15:00Z,29.2533,-90.6633,1.09,4.04,1111122 
LUMCON,ioos:station:LUMCON:101:1,2016-07-08T22:30:00Z,29.2533,-90.6633,1.08,4.04,1111122 
LUMCON,ioos:station:LUMCON:101:1,2016-07-08T22:45:00Z,29.2533,-90.6633,1.08,4.05,1111122 
LUMCON,ioos:station:LUMCON:101:1,2016-07-08T23:00:00Z,29.2533,-90.6633,1.07,4.04,1111122 
LUMCON,ioos:station:LUMCON:101:1,2016-07-08T23:15:00Z,29.2533,-90.6633,1.05,4.0,1111122 
LUMCON,ioos:station:LUMCON:101:1,2016-07-08T23:30:00Z,29.2533,-90.6633,1.04,3.94,1111122 
LUMCON,ioos:station:LUMCON:101:1,2016-07-08T23:45:00Z,29.2533,-90.6633,1.04,3.94,1111122 
LUMCON,ioos:station:LUMCON:101:1,2016-07-09T00:00:00Z,29.2533,-90.6633,1.03,3.95,1111122 
LUMCON,ioos:station:LUMCON:101:1,2016-07-09T00:15:00Z,29.2533,-90.6633,1.03,3.97,1111122 
LUMCON,ioos:station:LUMCON:101:1,2016-07-09T00:30:00Z,29.2533,-90.6633,1.03,3.88,1111122 
LUMCON,ioos:station:LUMCON:101:1,2016-07-09T00:45:00Z,29.2533,-90.6633,1.03,3.79,1111122 
LUMCON,ioos:station:LUMCON:101:1,2016-07-09T01:00:00Z,29.2533,-90.6633,1.02,3.72,1111122 
LUMCON,ioos:station:LUMCON:101:1,2016-07-09T01:15:00Z,29.2533,-90.6633,1.0,3.7,1111122 
LUMCON,ioos:station:LUMCON:101:1,2016-07-09T01:30:00Z,29.2533,-90.6633,0.99,3.72,1111122 
LUMCON,ioos:station:LUMCON:101:1,2016-07-09T01:45:00Z,29.2533,-90.6633,0.98,3.69,1111122 
LUMCON,ioos:station:LUMCON:101:1,2016-07-09T02:00:00Z,29.2533,-90.6633,0.98,3.7,1111122 
LUMCON,ioos:station:LUMCON:101:1,2016-07-09T02:15:00Z,29.2533,-90.6633,0.98,3.67,1111122 
LUMCON,ioos:station:LUMCON:101:1,2016-07-09T02:30:00Z,29.2533,-90.6633,0.98,3.67,1111122 
LUMCON,ioos:station:LUMCON:101:1,2016-07-09T02:45:00Z,29.2533,-90.6633,0.98,3.61,1111122 
LUMCON,ioos:station:LUMCON:101:1,2016-07-09T03:00:00Z,29.2533,-90.6633,0.97,3.58,1111122 
LUMCON,ioos:station:LUMCON:101:1,2016-07-09T03:15:00Z,29.2533,-90.6633,0.96,3.53,1111122 
LUMCON,ioos:station:LUMCON:101:1,2016-07-09T03:30:00Z,29.2533,-90.6633,0.96,3.52,1111122 
LUMCON,ioos:station:LUMCON:101:1,2016-07-09T03:45:00Z,29.2533,-90.6633,0.96,3.52,1111122 
LUMCON,ioos:station:LUMCON:101:1,2016-07-09T04:00:00Z,29.2533,-90.6633,0.95,3.53,1111122 
LUMCON,ioos:station:LUMCON:101:1,2016-07-09T04:15:00Z,29.2533,-90.6633,0.95,3.51,1111122 
LUMCON,ioos:station:LUMCON:101:1,2016-07-09T04:30:00Z,29.2533,-90.6633,0.95,3.55,1111122 
LUMCON,ioos:station:LUMCON:101:1,2016-07-09T04:45:00Z,29.2533,-90.6633,0.94,3.56,1111122 
LUMCON,ioos:station:LUMCON:101:1,2016-07-09T05:00:00Z,29.2533,-90.6633,0.95,3.59,1111122 
LUMCON,ioos:station:LUMCON:101:1,2016-07-09T05:15:00Z,29.2533,-90.6633,0.95,3.59,1111122 
LUMCON,ioos:station:LUMCON:101:1,2016-07-09T05:30:00Z,29.2533,-90.6633,0.96,3.59,1111122 
LUMCON,ioos:station:LUMCON:101:1,2016-07-09T05:45:00Z,29.2533,-90.6633,0.97,3.58,1111122 
LUMCON,ioos:station:LUMCON:101:1,2016-07-09T06:00:00Z,29.2533,-90.6633,0.97,3.56,1111122 
LUMCON,ioos:station:LUMCON:101:1,2016-07-09T06:15:00Z,29.2533,-90.6633,0.97,3.56,1111122 
LUMCON,ioos:station:LUMCON:101:1,2016-07-09T06:30:00Z,29.2533,-90.6633,0.96,3.58,1111122 
LUMCON,ioos:station:LUMCON:101:1,2016-07-09T06:45:00Z,29.2533,-90.6633,0.96,3.59,1111122 
LUMCON,ioos:station:LUMCON:101:1,2016-07-09T07:00:00Z,29.2533,-90.6633,0.95,3.58,1111122 
LUMCON,ioos:station:LUMCON:101:1,2016-07-09T07:15:00Z,29.2533,-90.6633,0.95,3.61,1111122 
LUMCON,ioos:station:LUMCON:101:1,2016-07-09T07:30:00Z,29.2533,-90.6633,0.96,3.59,1111122 
LUMCON,ioos:station:LUMCON:101:1,2016-07-09T07:45:00Z,29.2533,-90.6633,0.95,3.58,1111122 
LUMCON,ioos:station:LUMCON:101:1,2016-07-09T08:00:00Z,29.2533,-90.6633,0.95,3.58,1111122 
LUMCON,ioos:station:LUMCON:101:1,2016-07-09T08:15:00Z,29.2533,-90.6633,0.97,3.59,1111122 
LUMCON,ioos:station:LUMCON:101:1,2016-07-09T08:30:00Z,29.2533,-90.6633,0.97,3.59,1111122 
LUMCON,ioos:station:LUMCON:101:1,2016-07-09T08:45:00Z,29.2533,-90.6633,0.97,3.57,1111122 
LUMCON,ioos:station:LUMCON:101:1,2016-07-09T09:00:00Z,29.2533,-90.6633,0.98,3.45,1111122 
LUMCON,ioos:station:LUMCON:101:1,2016-07-09T09:15:00Z,29.2533,-90.6633,0.99,3.33,1111122 
LUMCON,ioos:station:LUMCON:101:1,2016-07-09T09:30:00Z,29.2533,-90.6633,0.99,3.3,1111122 